Tracking 29892 objects as of 21-Nov-2024
HD Live streaming from Space Station
objects crossing your sky now

FENGYUN 1C DEB

Track FENGYUN 1C DEB now!
10-day predictions


NORAD ID: 30125
Int'l Code: 1999-025SE
Perigee: 579.8 km
Apogee: 1,100.7 km
Inclination: 98.7 °
Period: 101.6 minutes
Semi major axis: 7211 km
RCS: 0.033 m2 (small)
Launch date: May 10, 1999
Source: People's Republic of China (PRC)
Launch site: Taiyaun Space Center, China (TSC)

Note: This is SATELLITE DEBRIS
Your satellite tracking list
Your tracking list is empty




NASA's NSSDC Master Catalog

Two Line Element Set (TLE):
1 30125U 99025SE  24325.23651215  .00003458  00000-0  90188-3 0  9996
2 30125  98.7213  62.4377 0361167  23.8813   5.6993 14.17705259914323
Source of the keplerian elements: AFSPC